Vertical_Velocity
-3 -1 0 1 2 3 1 -2 -14 16 -2 -12 0 -0 19 19 7 3 8 1 -2 -0 -5 1 2 0 11 -6 -2 -0 -4 2 2 5 5 3 -6 -1 -3 -12 4 -10 -8 -0
-1 -0 2 3 4 -0 9 -4 -0 1 3 -25 -1 12 4 -1 7 3 6 2 -11 9 2 1 6 6 2 2 1 -5 -10 -10 -3 14 5 4 -3 10 6 -2 0 3 -19 19
-1 0 2 2 3 7 4 10 -10 -3 -9 5 5 4 4 -6 3 3 2 6 1 -2 -0 4 8 4 12 -7 8 -8 -2 1 -5 2 14 6 2 -3 -4 -10 -23 18 -10 -0
2 1 3 3 3 10 5 -5 -11 1 -7 0 7 3 15 0 -3 6 -3 -2 -2 4 -0 3 7 3 -1 -2 14 6 -1 -8 -1 7 14 -4 -9 3 -5 -14 22 -29 29 -8
1 1 1 6 6 10 -2 -11 -3 -2 6 6 5 -6 6 11 4 2 7 13 14 -3 1 6 3 1 2 -7 -3 -2 8 2 -2 2 2 2 -6 -5 15 14 8 -5 1 -3
1 2 2 3 7 2 -18 7 3 -1 2 -1 -13 29 22 12 8 7 8 12 4 6 25 4 1 -4 8 -6 -13 2 -4 -1 3 2 9 5 -26 -1 0 4 3 1 -17 20
1 1 1 4 12 2 2 4 3 -9 -5 -8 25 2 5 9 13 10 10 -1 4 15 -5 -4 -5 -4 -3 -3 -1 -3 -7 -0 -10 -19 17 3 -8 10 -2 0 23 12 3 4
1 1 2 4 9 7 -2 1 -8 -7 1 8 -5 4 2 -0 1 -9 -4 10 12 -10 -8 1 -1 -0 -7 1 -3 0 1 -4 -8 -14 4 -40 -5 5 5 -1 -0 5 -11 -0
1 1 2 5 5 4 2 1 1 -9 4 -5 9 -0 1 -1 9 -4 6 12 -4 -8 -3 -5 -11 -3 2 -8 -3 -8 -3 0 -1 -4 -4 -33 21 21 21 -21 -60 -2 -9 5
2 3 4 5 6 8 -1 -6 0 -11 -9 2 -1 -7 6 -2 12 3 3 15 -5 -9 -3 -7 -3 -8 4 -10 -4 7 3 0 -8 2 -4 -36 34 12 5 -7 -7 -17 3 -3
1 2 3 3 4 5 -3 11 -4 -9 2 2 -1 3 -4 -0 0 1 23 10 -12 -15 -11 -12 -8 -14 2 -10 -1 -3 1 -4 6 1 -8 -32 -13 12 7 4 -14 3 -2 -9
1 1 2 2 4 4 2 -1 2 -2 -2 -2 -2 -3 -2 8 12 5 -8 10 -4 2 -17 -15 6 2 7 11 -13 -1 -19 15 7 -12 -6 -0 1 -5 -4 7 3 6 8 -8
-1 -0 1 2 3 2 -4 1 7 -8 -12 -2 -4 1 12 1 9 7 -14 2 11 -4 2 4 -3 -27 4 -17 2 -1 3 19 -19 -12 15 5 -7 -15 -2 -3 13 8 -3 -1
-1 -1 3 3 2 4 5 -9 12 3 -4 -7 3 -1 -3 6 -2 -2 3 6 1 5 -0 -1 -5 -14 -1 -2 11 -14 19 -14 4 -4 -9 4 2 9 -12 -8 3 25 -3 -0
-1 -0 -3 4 6 3 4 -1 1 2 9 -5 -4 8 7 8 -1 1 -2 -0 1 -3 2 -9 -3 -5 1 4 7 -5 -1 -3 -11 6 -4 -7 12 -5 16 -5 1 -0 24 4
-0 2 3 2 3 5 1 -10 -5 -3 -4 -7 -11 -1 -4 -4 -3 -1 17 1 6 3 2 -4 -9 4 6 -1 11 4 1 2 -7 0 -10 1 9 6 10 4 4 14 12 4
-2 0 2 3 -6 -8 -9 3 22 1 -2 -6 -7 1 -2 -4 -8 -1 2 -1 -0 -0 2 -16 -0 4 -0 2 13 6 3 0 -4 -4 6 2 9 16 6 1 2 1 -3 -5
1 22 12 2 3 1 5 3 3 -2 -0 2 41 -10 0 -6 -7 -2 -8 -1 8 -2 -0 -1 1 17 9 -14 -11 -4 -3 -4 -6 -4 -2 0 7 9 -3 -2 -4 2 2 1
-4 -7 -7 1 6 4 -5 8 -0 6 19 -1 22 8 13 37 -2 3 4 0 -2 4 3 -4 1 0 69 1 3 3 5 1 -5 -3 -1 3 1 -2 -2 -6 3 0 0 6
8 1 1 -5 -4 5 7 7 21 11 16 16 8 3 2 4 -0 -0 1 1 35 18 6 6 -3 -7 11 8 -2 1 3 1 1 -2 -2 3 -4 2 4 4 3 5 2 -3
8 3 5 5 6 3 29 20 15 7 22 2 -0 4 3 -6 -2 0 4 13 0 -2 -7 -5 -5 -1 -3 -2 1 1 3 8 -0 -4 0 1 5 2 2 4 7 -2 3 -1
-1 26 4 15 1 1 -0 1 3 -4 -1 -3 -1 -1 -0 1 1 0 -3 -4 -1 -7 -1 -4 -12 -3 3 5 5 -3 -1 8 11 12 3 9 -1 -1 -0 8 -4 -2 -6 -2
2 2 -0 -3 -4 -7 -2 -3 -4 -0 0 -2 -0 1 3 -1 -4 -3 -4 -5 -5 -2 -8 -8 -0 -1 1 2 0 1 5 2 5 6 3 1 -1 -2 1 4 6 4 1 1
-2 -0 2 0 -1 1 1 -0 -0 -1 0 1 1 1 0 -1 21 2 2 -0 -1 -4 -6 -4 -2 -1 3 5 6 4 5 9 4 -2 3 2 3 -3 1 3 -2 -0 -0 1
-0 -2 -3 -2 -0 -1 0 -0 -0 -2 -2 -3 -4 -2 2 4 11 -0 3 -2 -7 -5 -1 5 2 3 4 2 0 2 1 0 2 -2 -4 2 0 1 7 6 4 4 4 4
-2 -1 -1 -0 -2 -1 0 -1 -2 -1 -2 0 0 0 -4 -4 -2 0 -2 -2 1 1 2 4 2 0 2 2 1 3 1 1 1 2 -1 4 5 5 5 6 6 4 4 4
-1 0 2 -0 1 -2 -2 2 2 5 9 5 1 -1 -1 2 -1 -2 -0 0 2 2 3 1 2 2 2 1 5 4 2 -0 -4 1 4 3 3 2 2 2 1 1 1 2
Height
5509 5510 5512 5514 5516 5519 5522 5523 5525 5534 5537 5541 5548 5558 5562 5569 5573 5581 5588 5594 5599 5604 5608 5614 5620 5628 5633 5634 5639 5642 5648 5654 5659 5665 5669 5672 5676 5678 5682 5682 5684 5685 5686 5689
5494 5495 5498 5501 5504 5509 5513 5513 5520 5522 5528 5531 5542 5546 5552 5555 5564 5571 5576 5581 5585 5593 5598 5604 5608 5615 5620 5624 5629 5632 5636 5643 5650 5657 5661 5661 5664 5669 5673 5676 5676 5675 5678 5682
5481 5483 5486 5490 5495 5500 5502 5506 5510 5512 5518 5526 5533 5537 5543 5550 5557 5563 5568 5574 5578 5584 5588 5593 5599 5605 5608 5614 5620 5623 5628 5632 5638 5644 5650 5650 5652 5656 5662 5667 5667 5667 5668 5675
5469 5471 5475 5480 5486 5490 5490 5496 5502 5506 5511 5517 5525 5531 5540 5545 5552 5558 5562 5570 5575 5579 5582 5585 5588 5594 5598 5602 5608 5614 5618 5623 5630 5631 5635 5640 5643 5647 5651 5654 5658 5658 5664 5666
5456 5461 5466 5471 5478 5480 5480 5490 5495 5500 5505 5510 5519 5526 5535 5538 5543 5550 5558 5564 5568 5571 5575 5576 5578 5584 5590 5594 5600 5603 5607 5614 5616 5621 5624 5627 5636 5642 5644 5644 5646 5646 5650 5654
5446 5451 5457 5463 5468 5470 5475 5483 5488 5493 5499 5506 5512 5518 5524 5532 5539 5546 5552 5557 5560 5564 5569 5570 5574 5578 5583 5588 5593 5597 5598 5600 5607 5612 5616 5616 5623 5634 5632 5635 5638 5639 5640 5646
5435 5441 5447 5453 5458 5462 5468 5476 5481 5485 5491 5499 5503 5510 5518 5524 5530 5536 5542 5547 5551 5558 5561 5566 5570 5574 5578 5582 5586 5590 5592 5592 5594 5602 5606 5601 5619 5618 5622 5624 5629 5632 5634 5636
5424 5430 5436 5442 5448 5453 5459 5466 5472 5477 5482 5490 5497 5503 5509 5517 5524 5529 5535 5542 5542 5546 5555 5559 5564 5570 5574 5577 5580 5584 5587 5589 5590 5591 5590 5592 5604 5610 5610 5606 5615 5618 5622 5631
5413 5419 5425 5431 5437 5443 5448 5455 5463 5469 5475 5481 5485 5494 5501 5510 5520 5523 5530 5536 5536 5539 5544 5552 5555 5561 5567 5570 5573 5576 5579 5580 5582 5583 5581 5582 5604 5605 5596 5597 5605 5613 5612 5616
5400 5406 5412 5417 5423 5429 5435 5442 5451 5459 5467 5470 5476 5484 5492 5499 5507 5514 5520 5526 5527 5530 5535 5540 5547 5553 5558 5562 5565 5569 5571 5572 5575 5575 5572 5580 5591 5592 5589 5591 5601 5604 5606 5607
5386 5392 5397 5402 5408 5414 5420 5428 5435 5446 5455 5458 5466 5473 5481 5490 5494 5502 5512 5512 5516 5521 5525 5531 5539 5545 5549 5553 5557 5560 5564 5567 5568 5567 5568 5574 5573 5582 5583 5581 5583 5590 5593 5598
5368 5373 5379 5385 5391 5397 5403 5412 5423 5430 5436 5449 5455 5463 5472 5479 5485 5491 5495 5503 5507 5512 5515 5525 5528 5534 5538 5544 5549 5551 5556 5558 5558 5562 5563 5564 5561 5570 5568 5570 5574 5578 5583 5590
5351 5356 5362 5368 5374 5382 5388 5397 5407 5414 5425 5435 5441 5452 5462 5466 5473 5480 5487 5494 5499 5502 5507 5512 5516 5520 5529 5533 5540 5543 5547 5548 5549 5553 5559 5556 5556 5558 5561 5563 5565 5569 5573 5579
5335 5340 5346 5354 5363 5372 5379 5387 5399 5405 5416 5421 5435 5440 5445 5456 5464 5472 5479 5485 5489 5495 5499 5501 5506 5513 5519 5523 5527 5531 5536 5536 5543 5544 5551 5549 5551 5551 5552 5558 5557 5561 5563 5569
5320 5326 5333 5343 5352 5363 5372 5382 5392 5399 5408 5418 5425 5429 5439 5447 5456 5464 5471 5477 5482 5487 5491 5495 5501 5505 5508 5511 5515 5520 5524 5530 5534 5537 5542 5542 5547 5544 5546 5550 5550 5552 5556 5561
5304 5311 5322 5334 5345 5355 5363 5373 5383 5393 5401 5410 5416 5423 5430 5439 5449 5457 5466 5470 5475 5479 5485 5490 5496 5498 5500 5503 5507 5511 5516 5522 5527 5530 5536 5536 5539 5540 5541 5542 5541 5545 5548 5554
5298 5304 5316 5330 5343 5354 5365 5377 5388 5393 5401 5408 5414 5419 5426 5435 5443 5450 5458 5465 5469 5473 5477 5483 5488 5492 5494 5496 5499 5504 5509 5513 5520 5523 5527 5528 5530 5532 5532 5536 5537 5538 5541 5545
5303 5312 5323 5335 5346 5357 5366 5376 5385 5395 5401 5405 5412 5418 5423 5431 5438 5446 5455 5459 5465 5469 5472 5477 5482 5484 5486 5488 5494 5500 5503 5507 5511 5514 5518 5521 5522 5523 5526 5528 5531 5534 5536 5538
5318 5323 5331 5341 5351 5361 5369 5378 5387 5394 5403 5405 5412 5417 5423 5430 5435 5444 5450 5456 5461 5466 5468 5470 5472 5471 5475 5482 5488 5492 5497 5501 5504 5507 5509 5512 5514 5516 5518 5520 5522 5525 5526 5528
5337 5342 5346 5353 5361 5369 5378 5385 5393 5399 5403 5408 5413 5418 5424 5431 5435 5441 5449 5453 5455 5458 5463 5465 5467 5471 5474 5478 5481 5485 5490 5494 5497 5500 5501 5504 5507 5509 5510 5511 5514 5517 5518 5518
5351 5357 5360 5365 5373 5380 5386 5391 5396 5400 5405 5411 5417 5421 5426 5431 5436 5440 5445 5449 5452 5456 5460 5463 5465 5468 5472 5475 5478 5481 5485 5488 5491 5494 5496 5497 5498 5500 5502 5503 5505 5506 5507 5508
5365 5369 5373 5377 5382 5386 5390 5394 5399 5404 5410 5414 5419 5424 5428 5431 5435 5439 5444 5446 5450 5453 5456 5458 5462 5466 5469 5472 5474 5478 5481 5483 5485 5486 5488 5488 5491 5492 5491 5494 5497 5497 5499 5499
5375 5378 5382 5385 5390 5393 5396 5400 5405 5409 5412 5416 5420 5424 5427 5430 5434 5437 5441 5444 5447 5450 5453 5455 5459 5463 5467 5468 5470 5473 5476 5477 5479 5480 5481 5483 5483 5483 5484 5485 5487 5487 5489 5489
5384 5387 5390 5393 5395 5398 5400 5403 5407 5410 5413 5416 5418 5421 5425 5428 5431 5434 5437 5440 5444 5446 5450 5454 5457 5461 5464 5466 5468 5470 5471 5472 5472 5472 5474 5475 5476 5477 5477 5477 5479 5479 5479 5479
5389 5391 5393 5395 5398 5400 5403 5405 5408 5411 5414 5418 5420 5423 5425 5428 5432 5434 5436 5439 5441 5446 5449 5452 5455 5460 5462 5463 5464 5465 5466 5466 5467 5468 5469 5470 5469 5468 5468 5469 5469 5468 5468 5467
5392 5394 5395 5397 5398 5400 5404 5407 5410 5413 5416 5419 5421 5423 5426 5428 5431 5433 5435 5439 5443 5446 5449 5451 5453 5456 5458 5459 5460 5460 5460 5460 5461 5461 5460 5459 5458 5458 5457 5457 5458 5459 5458 5457
5395 5397 5398 5399 5402 5406 5409 5411 5413 5415 5418 5420 5421 5423 5425 5429 5431 5434 5438 5441 5443 5445 5446 5448 5449 5451 5453 5455 5455 5454 5454 5455 5455 5456 5455 5454 5454 5453 5453 5452 5451 5451 5449 5447